Location: ?????????
(54.7630°N, 39.4991°E)
Time: 06:45:49
(UTC+00:00)

SL-08 R/B - Pass Details

Date: 14 April 2026
Orbit: 944 x 1006 km, 83.0° (Epoch: 13 May)

Event Time Altitude Azimuth Distance (km) Brightness Sun altitude
Exits shadow 21:29:44 63° 173° (S) 1,065 4.3 -25.6°
Maximum altitude 21:30:48 82° 99° (E) 972 4.4 -25.6°
Drops below altitude 10° 21:37:02 10° 12° (NNE) 2,720 7.9 -25.5°
Sets 21:39:34 0° 12° (NNE) 3,680 8.9 -25.5°
